Regional Weather Roundup
Issued by NWS

Home | Current Version | Previous Version | Graphics & Text | Print | Product List | Glossary On
Versions: 1 2 3 4 5 6 7 8 9 10 11 12 13 14 15 16 17 18 19 20 21 22 23 24 25 26 27 28 29 30 31 32 33 34 35 36 37 38 39 40 41 42 43 44 45 46 47 48 49 50
000
ASUS45 KCYS 220610
RWRWY

WYOMING REGIONAL WEATHER ROUNDUP
NATIONAL WEATHER SERVICE CHEYENNE WY
1100 PM MST FRI NOV 21 2014

NOTE:  "FAIR" INDICATES FEW OR NO CLOUDS BELOW 12,000 FEET
WITH NO SIGNIFICANT WEATHER AND/OR OBSTRUCTIONS TO VISIBILITY.

WYZ001-220700-
YELLOWSTONE NATIONAL PARK

CITY           SKY/WX    TMP DP  RH WIND       PRES   REMARKS
LK YELLOWSTONE   N/A     28  20  71 CALM      29.88F
6HR MIN TEMP:  25; 6HR MAX TEMP:  30;

W YELLOWSTONE  NOT AVBL

$$
WYZ002>013-054>058-071-098>099-220700-
NORTHERN WYOMING

CITY           SKY/WX    TMP DP  RH WIND       PRES   REMARKS
JACKSON        MOCLDY    21  19  93 S3        29.91F
CODY           MOCLDY    39  21  48 SW7       29.72F WCI  34
GREYBULL       PTCLDY     8   6  92 NW5       29.77F WCI   0
6HR MIN TEMP:   8; 6HR MAX TEMP:  27;

WORLAND        PTCLDY    11   9  92 CALM      29.75F
6HR MIN TEMP:  11; 6HR MAX TEMP:  26;

SHERIDAN       CLEAR     41  19  41 S6        29.68F
6HR MIN TEMP:  29; 6HR MAX TEMP:  41;

BUFFALO        CLEAR     30  17  58 W5        29.70F WCI  25
6HR MIN TEMP:  29; 6HR MAX TEMP:  39;

GILLETTE       CLEAR     29  21  72 SE5       29.74F WCI  24
6HR MIN TEMP:  28; 6HR MAX TEMP:  33;

HULETT           N/A    N/A N/A N/A MISG        N/A
NEWCASTLE      FAIR      23  19  86 CALM      29.81F

$$
WYZ014>020-022>026-101>103-220700-
CENTRAL WYOMING

CITY           SKY/WX    TMP DP  RH WIND       PRES   REMARKS
BIG PINEY      MOCLDY    15  11  83 NE7       29.97S WCI   5
6HR MIN TEMP:  15; 6HR MAX TEMP:  31;

PINEDALE       MOCLDY    18  16  93 NW5       29.97F WCI  11
DUBOIS         FAIR      32  19  59 NW17G28   29.82F WCI  21
LANDER         NOT AVBL
RIVERTON       PTCLDY    24  17  74 N3        29.81F
6HR MIN TEMP:  19; 6HR MAX TEMP:  31;

CASPER         CLEAR     34  23  64 SW14      29.81F WCI  25
6HR MIN TEMP:  31; 6HR MAX TEMP:  38;

DOUGLAS        CLEAR     35  23  61 N5        29.84F WCI  31
6HR MIN TEMP:  30; 6HR MAX TEMP:  55; 6HR PCP: TRACE;


$$
WYZ021-027>030-104>119-220700-
SOUTHERN WYOMING

CITY           SKY/WX    TMP DP  RH WIND       PRES   REMARKS
EVANSTON       CLEAR     33  19  56 SW13      30.00R WCI  24
6HR MIN TEMP:  29; 6HR MAX TEMP:  38;

KEMMERER       PTCLDY    30  19  64 SW10      29.99R WCI  21
FORT BRIDGER   FAIR      36  20  53 SW15      30.01S WCI  27
ROCK SPRINGS   PTCLDY    31  17  56 SW13      29.97F WCI  21
6HR MIN TEMP:  30; 6HR MAX TEMP:  37;

DIXON          FAIR      21  17  86 CALM      30.04S
RAWLINS        CLEAR     35  16  45 W17       29.93F WCI  25
6HR MIN TEMP:  28; 6HR MAX TEMP:  37;

SARATOGA       FAIR      27  19  74 CALM      29.97S
LARAMIE        CLEAR     33  17  51 SW15      29.93F WCI  23
6HR MIN TEMP:  24; 6HR MAX TEMP:  35;

CHEYENNE       CLEAR     30  16  56 SW10      29.92F WCI  21
6HR MIN TEMP:  29; 6HR MAX TEMP:  44;

TORRINGTON     CLEAR     31  21  66 SE3       29.86F
6HR MIN TEMP:  31; 6HR MAX TEMP:  45;

PINE BLUFFS    FAIR      28  18  64 SW12      29.92F WCI  18

$$


USA.gov is the U.S. government's official web portal to all federal, state and local government web resources and services.